FW4572 Weather Reports


time (UTC)temp
C
wind
direction
speed
KPH
gust
KPH
rain 1hr
cm
rain 24hr
cm
rain mn
cm
humidity
%
barometer
mb
20260906124327 22 337 0.0 0.0 0.00 0.48 0.48 92 1015.4
20260906123330 22 337 0.0 0.0 0.00 0.48 0.48 92 1015.5
20260906121445 22 180 0.0 0.0 0.00 0.48 0.48 92 1015.3
20260906120428 22 180 0.0 0.0 0.00 0.48 0.48 90 1015.1
20260906115430 22 202 0.0 0.0 0.00 0.48 0.48 90 1015.0
20260906115328 22 202 0.0 0.0 0.00 0.48 0.48 90 1014.9
20260906114244 22 315 0.0 0.0 0.00 0.48 0.48 91 1014.9
20260906113330 22 315 0.0 0.0 0.00 0.48 0.48 92 1015.0
20260906112329 22 337 1.6 1.6 0.00 0.48 0.48 93 1014.9
20260906111327 22 180 0.0 0.0 0.03 0.48 0.48 91 1014.9
20260906110327 22 202 0.0 0.0 0.03 0.48 0.48 90 1014.8
20260906105327 22 180 0.0 0.0 0.03 0.48 0.48 91 1014.9
20260906104328 22 193 0.0 1.6 0.03 0.48 0.48 90 1014.8
20260906103328 22 180 1.6 6.4 0.03 0.48 0.48 90 1014.9
20260906102427 21 262 1.6 8.0 0.03 0.48 0.48 93 1014.7
20260906101429 21 278 0.0 0.0 0.00 0.46 0.46 94 1014.7
20260906100430 22 360 0.0 3.2 0.00 0.46 0.46 95 1014.6
20260906095427 22 337 0.0 0.0 0.00 0.46 0.46 95 1014.7
20260906094428 22 157 0.0 0.0 0.00 0.46 0.46 95 1014.7
20260906093427 21 328 0.0 1.6 0.15 0.46 0.46 95 1014.8
20260906092446 22 226 1.6 6.4 0.30 0.46 0.46 95 1014.9
20260906091428 22 331 1.6 3.2 0.36 0.46 0.46 94 1015.2
20260906090427 22 360 0.0 0.0 0.38 0.46 0.46 94 1015.0
20260906085427 22 233 4.8 12.9 0.38 0.46 0.46 94 1015.3
20260906084428 22 202 12.9 20.9 0.38 0.46 0.46 94 1015.6
20260906083527 22 337 0.0 0.0 0.23 0.30 0.30 92 1015.9
20260906082528 22 218 4.8 9.7 0.10 0.18 0.15 92 1015.3
20260906081626 22 209 8.0 12.9 0.10 0.10 0.10 93 1014.9
20260906081529 22 213 8.0 12.9 0.10 0.10 0.10 93 1015.1
20260906080427 22 157 0.0 0.0 0.08 0.08 0.08 92 1015.6
20260906075527 22 315 0.0 0.0 0.08 0.08 0.08 93 1015.8
20260906074545 22 170 0.0 0.0 0.08 0.08 0.08 91 1015.5
20260906072627 23 179 0.0 1.6 0.08 0.08 0.08 87 1014.9
20260906071628 23 191 0.0 3.2 0.00 0.00 0.00 85 1014.7
20260906070726 23 169 4.8 6.4 0.00 0.00 0.00 84 1015.1
20260906064728 23 181 3.2 6.4 0.00 0.00 0.00 85 1015.5
20260906063728 23 204 3.2 6.4 0.00 0.00 0.00 86 1015.3
20260906062727 23 201 6.4 12.9 0.00 0.00 0.00 86 1015.3
20260906060728 23 206 1.6 4.8 0.00 0.00 0.00 84 1015.7
20260906055828 24 159 1.6 6.4 0.00 0.00 0.00 82 1015.7
20260906054728 25 229 1.6 4.8 0.00 0.00 0.00 80 1015.8
20260906051827 26 180 0.0 0.0 0.00 0.00 0.00 73 1014.5
20260906050828 26 180 3.2 3.2 0.00 0.00 0.00 75 1014.4
20260906045834 26 247 0.0 0.0 0.00 0.00 0.00 78 1014.4
20260906044835 26 235 3.2 4.8 0.00 0.00 0.00 80 1014.5
20260906042935 26 188 0.0 3.2 0.00 0.00 0.00 83 1015.1
20260906041936 26 180 0.0 0.0 0.00 0.00 0.00 84 1015.0
20260906041033 25 180 0.0 0.0 0.00 0.00 0.00 85 1015.1
20260906040035 25 22 0.0 0.0 0.00 0.00 0.00 85 1015.2
20260906035035 25 180 3.2 3.2 0.00 0.00 0.00 84 1015.3
20260906034034 26 202 0.0 0.0 0.00 0.00 0.00 83 1014.9
20260906032035 26 180 0.0 1.6 0.00 0.00 0.00 80 1015.0
20260906031133 26 180 0.0 0.0 0.00 0.00 0.00 78 1014.9
20260906030135 26 180 0.0 0.0 0.00 0.00 0.00 78 1014.7
20260906025134 26 225 0.0 0.0 0.00 0.00 0.00 77 1014.6
20260906024134 27 180 0.0 0.0 0.00 0.00 0.00 77 1014.5
20260906023035 27 337 0.0 0.0 0.00 0.00 0.00 75 1014.2
20260906022034 27 23 0.0 0.0 0.00 0.00 0.00 73 1014.0
20260906021036 28 112 0.0 0.0 0.00 0.00 0.00 72 1014.0
20260906015135 28 112 0.0 0.0 0.00 0.00 0.00 70 1013.7
20260906014233 28 112 0.0 0.0 0.00 0.00 0.00 71 1013.8
20260906013234 28 157 0.0 0.0 0.00 0.00 0.00 71 1013.6
20260906012250 28 157 0.0 0.0 0.00 0.00 0.00 69 1013.7
20260906011250 29 337 0.0 0.0 0.00 0.00 0.00 68 1013.9
20260906010234 29 337 1.6 3.2 0.00 0.00 0.00 67 1013.7
20260906005234 29 180 0.0 0.0 0.00 0.00 0.00 67 1013.8
20260906004234 29 180 0.0 0.0 0.00 0.00 0.00 66 1013.5
20260906003234 30 180 0.0 0.0 0.00 0.00 0.00 65 1013.5
20260906002235 31 180 0.0 0.0 0.00 0.00 0.00 62 1013.5
20260906000235 32 180 0.0 0.0 0.00 0.00 0.00 59 1013.5
20260905235234 32 180 0.0 0.0 0.00 0.00 0.00 56 1013.8
20260905234250 33 180 0.0 0.0 0.00 0.00 0.00 54 1013.7
20260905233333 34 180 0.0 0.0 0.00 0.00 0.00 50 1013.5
20260905233252 35 180 0.0 0.0 0.00 0.00 0.00 51 1013.6
20260905232337 35 180 0.0 0.0 0.00 0.00 0.00 49 1013.7
20260905231334 36 180 0.0 0.0 0.00 0.00 0.00 46 1013.8
20260905230335 37 180 0.0 0.0 0.00 0.00 0.00 44 1013.7
20260905225335 38 180 0.0 0.0 0.00 0.00 0.00 42 1013.7
20260905224434 38 112 0.0 0.0 0.00 0.00 0.00 43 1013.7
20260905223433 37 180 0.0 0.0 0.00 0.00 0.00 43 1013.8
20260905222434 36 311 0.0 0.0 0.00 0.00 0.00 44 1013.9
20260905222335 36 273 0.0 3.2 0.00 0.00 0.00 43 1013.8
20260905221334 38 173 3.2 6.4 0.00 0.00 0.00 41 1013.8
20260905220336 38 220 0.0 1.6 0.00 0.00 0.00 42 1013.8
20260905215334 37 360 1.6 3.2 0.00 0.00 0.00 42 1013.8
20260905214334 38 245 0.0 3.2 0.00 0.00 0.00 42 1013.9
20260905213335 38 182 0.0 3.2 0.00 0.00 0.00 42 1014.0
20260905212434 38 148 0.0 3.2 0.00 0.00 0.00 42 1014.0
20260905211434 38 192 8.0 12.9 0.00 0.00 0.00 40 1013.9
20260905210435 39 222 1.6 8.0 0.00 0.00 0.00 39 1014.0
20260905204435 38 14 0.0 6.4 0.00 0.00 0.00 41 1014.3
20260905203451 38 360 0.0 0.0 0.00 0.00 0.00 42 1014.4
20260905202533 37 187 0.0 0.0 0.00 0.00 0.00 42 1014.5
20260905201550 38 202 4.8 8.0 0.00 0.00 0.00 43 1014.6
20260905200532 37 151 0.0 1.6 0.00 0.00 0.00 43 1014.6
20260905195534 37 293 0.0 0.0 0.00 0.03 0.00 45 1014.9
20260905194536 37 213 0.0 6.4 0.00 0.05 0.00 44 1015.0
20260905193532 37 227 1.6 6.4 0.00 0.08 0.00 44 1015.2
20260905192534 37 212 3.2 6.4 0.00 0.10 0.00 45 1015.4
20260905191537 36 215 0.0 3.2 0.00 0.18 0.00 46 1015.5
20260905190534 37 226 3.2 6.4 0.00 0.18 0.00 45 1015.7
20260905185633 36 318 0.0 3.2 0.00 0.18 0.00 46 1015.9
20260905184733 36 322 0.0 4.8 0.00 0.18 0.00 46 1015.9
20260905183735 36 310 0.0 3.2 0.00 0.18 0.00 46 1016.0
20260905181734 36 325 0.0 3.2 0.00 0.18 0.00 49 1016.3
20260905180734 36 112 0.0 0.0 0.00 0.18 0.00 49 1016.4
20260905175733 35 157 0.0 0.0 0.00 0.18 0.00 51 1016.3
20260905173732 35 241 1.6 4.8 0.00 0.18 0.00 50 1016.4
20260905172748 35 348 0.0 0.0 0.00 0.18 0.00 52 1016.5
20260905171832 35 156 1.6 3.2 0.00 0.18 0.00 54 1016.6
20260905170834 34 200 0.0 0.0 0.00 0.18 0.00 56 1016.7
20260905165933 33 182 4.8 6.4 0.00 0.18 0.00 57 1016.8
20260905164951 33 213 3.2 6.4 0.00 0.18 0.00 60 1017.0
20260905164035 32 138 0.0 1.6 0.00 0.18 0.00 61 1017.1
20260905163035 32 199 6.4 11.3 0.00 0.18 0.00 63 1017.3
20260905162942 32 204 1.6 4.8 0.00 0.18 0.00 62 1017.2
20260905161933 31 202 4.8 8.0 0.00 0.18 0.00 63 1017.3
20260905160933 32 196 3.2 6.4 0.00 0.18 0.00 64 1017.4
20260905155934 31 202 4.8 8.0 0.00 0.18 0.00 65 1017.5
20260905154952 31 337 0.0 0.0 0.00 0.18 0.00 68 1017.6
20260905153035 30 202 0.0 0.0 0.00 0.18 0.00 71 1017.5
20260905151132 29 202 0.0 0.0 0.00 0.18 0.00 74 1017.5
20260905150133 28 202 0.0 0.0 0.00 0.18 0.00 77 1017.7
20260905145150 27 187 0.0 0.0 0.00 0.18 0.00 81 1017.8
20260905144232 27 180 0.0 1.6 0.00 0.18 0.00 84 1017.6
20260905142233 26 180 3.2 3.2 0.00 0.18 0.00 87 1017.8
20260905141332 25 180 0.0 0.0 0.00 0.18 0.00 89 1017.9
20260905140332 25 180 0.0 0.0 0.00 0.18 0.00 90 1017.8
20260905135333 25 180 0.0 0.0 0.00 0.18 0.00 91 1017.7
20260905134351 25 180 0.0 0.0 0.00 0.18 0.00 92 1017.8
20260905133333 24 180 0.0 0.0 0.00 0.18 0.00 92 1017.7
20260905132334 24 180 0.0 0.0 0.00 0.18 0.00 94 1017.8
20260905131333 23 180 0.0 0.0 0.00 0.18 0.00 94 1017.8
20260905130431 23 180 0.0 0.0 0.00 0.18 0.00 93 1017.7
20260905125435 23 180 0.0 0.0 0.00 0.18 0.00 94 1017.8